Flight Track Log - Related Links

Times and Time Zones

All times are in EDT time to prevent confusion due to time zone crossing. See the N21EK flight status page for this flight to view local times or setup timezone preferences in your user account.

Time Position Orientation Groundspeed Altitude Reporting Facility
EDT Latitude Longitude Course Direction KTS MPH feet Rate Location/Type
Sun 02:33:31 PM 26.2144 -80.1614 30° Northeast 162 186 2,000  Level Miami Center
Sun 02:34:34 PM 26.2319 -80.2106 292° West 172 198 4,600 2,154 Climbing Miami Center
Sun 02:35:28 PM 26.2308 -80.2636 269° West 220 253 6,200 2,150 Climbing Miami Center
Sun 02:36:34 PM 26.2442 -80.3219 284° West 188 216 8,900 2,048 Climbing Miami Center
Sun 02:37:34 PM 26.2514 -80.3639 281° West 182 209 10,500 1,950 Climbing Miami Center
Sun 02:38:34 PM 26.2642 -80.4361 281° West 189 217 12,800 1,950 Climbing Miami Center
Sun 02:39:34 PM 26.2733 -80.4919 280° West 200 230 14,400 1,750 Climbing Miami Center
Sun 02:40:34 PM 26.2864 -80.5594 282° West 205 236 16,300 1,600 Climbing Miami Center
Sun 02:41:34 PM 26.2972 -80.6178 282° West 205 236 17,600 1,450 Climbing Miami Center
Sun 02:42:34 PM 26.3272 -80.6767 300° West 205 236 19,200 1,200 Climbing Miami Center
Sun 02:43:34 PM 26.3614 -80.7242 309° West 205 236 20,000 400 Climbing Miami Center
Sun 02:44:34 PM 26.4097 -80.7931 308° West 242 278 20,000  Level Miami Center
Sun 02:45:34 PM 26.4517 -80.8547 307° West 275 316 20,000  Level Miami Center
Sun 02:46:34 PM 26.4958 -80.9189 308° West 283 326 20,000  Level Miami Center
Sun 02:47:34 PM 26.5606 -81.0022 311° West 288 331 20,000  Level Miami Center
Sun 02:48:34 PM 26.6086 -81.0736 307° West 293 337 20,000  Level Miami Center
Sun 02:49:34 PM 26.6586 -81.1475 307° West 293 337 20,000  Level Miami Center
Sun 02:50:34 PM 26.7047 -81.2097 310° West 298 343 20,000  Level Miami Center
Sun 02:51:34 PM 26.7547 -81.2836 307° West 298 343 20,000  Level Miami Center
Sun 02:52:34 PM 26.8106 -81.3647 308° West 298 343 20,000  Level Miami Center
Sun 02:53:34 PM 26.8628 -81.4367 309° West 298 343 20,000  Level Miami Center
Sun 02:54:34 PM 26.9233 -81.5019 316° Northwest 298 343 20,000 -300 Level Miami Center
Sun 02:55:34 PM 26.9736 -81.5622 313° West 298 343 19,400 -1,050 Descending Miami Center
Sun 02:56:34 PM 27.0317 -81.6367 311° West 298 343 17,900 -1,600 Descending Miami Center
Sun 02:57:34 PM 27.0881 -81.6997 315° West 293 337 16,200 -1,750 Descending Miami Center
Sun 02:58:34 PM 27.1400 -81.7647 312° West 288 331 14,400 -1,800 Descending Miami Center
Sun 02:59:34 PM 27.1903 -81.8231 314° West 276 318 12,600 -1,800 Descending Miami Center
Sun 03:00:34 PM 27.2342 -81.8808 311° West 261 300 10,800 -1,650 Descending Miami Center
Sun 03:01:34 PM 27.2589 -81.9519 291° West 250 288 9,300 -1,500 Descending Miami Center
Sun 03:02:34 PM 27.2728 -82.0250 282° West 244 281 7,800 -1,550 Descending Miami Center
Sun 03:03:34 PM 27.2892 -82.0981 284° West 244 281 6,200 -1,400 Descending Miami Center
Sun 03:04:34 PM 27.2844 -82.1681 266° West 233 268 5,000 -900 Descending Miami Center
Sun 03:05:34 PM 27.2842 -82.2289 270° West 220 253 4,400 -750 Descending Miami Center
Sun 03:06:34 PM 27.2819 -82.2894 268° West 200 230 3,500 -950 Descending Miami Center
Sun 03:07:34 PM 27.2817 -82.3547 270° West 200 230 2,500 -968 Descending Miami Center
Sun 03:08:07 PM 27.2833 -82.4000 272° West 212 244 2,000 -483 Descending Tampa TRACON
Sun 03:09:01 PM 27.3000 -82.4500 291° West 185 213 1,800 -158 Descending Tampa TRACON
Sun 03:10:01 PM 27.3333 -82.4833 318° Northwest 116 133 1,700 -298 Descending Tampa TRACON
Sun 03:11:02 PM 27.3500 -82.5000 318° Northwest 97 112 1,200 -500 Descending Tampa TRACON
Sun 03:12:01 PM 27.3667 -82.5167 318° Northwest 108 124 700 -508 Descending Tampa TRACON
Sun 03:14:00 PM 27.3833 -82.5500 281° West  Level FlightAware Approximate
Sun 03:21:00 PM 27.3954 -82.5544 281° West  Level Estimated
Sun 03:22:00 PM 27.3954 -82.5544 281° West  Level Estimated

Login

Don't have an account? Register now (free) for customized features, flight alerts, and more!